Showing default

IRIDIUM 33, 24946

Orbit data source: Space-Track

IRIDIUM 33, 24946 is a payload satellite owned by Iridium (US) in LEO that was launched on Sun, 14 Sep 1997 UTC via a PROTON-K/17S40 launch vehicle from the Tyuratam Missile And Space Complex (TTMTR). Payload-class satellites include a variety of spacecraft equipped with specific instruments for various scientific and technological missions. These include communications satellites like Starlink; space stations such as the ISS; scientific satellites like the Hubble; Earth observation satellites from companies like Planet Labs, Umbra, and HawkEye 360; GPS; miniature CubeSats for education and research; and military/defense satellites.

Loading next visibility...
Identifier
24946, 1997-051C
Orbit
LEO
Country
Flag of USUS
Related business
Manufacturer
MOTO/LMMS
Mission
Non-operational Commercial Communications
Bus & Motor
LM700, Unknown motor
Mass
662 kg wet, 556 kg dry
Launch date (UTC)
1997-09-14 (29 years ago)
Launch vehicle
PROTON-K/17S40
Launch site
Tyuratam Missile And Space Complex (TTMTR)
Object type
Payload
Rocket body
Debris
Shape & HBR
Box + 2 Pan, 4.7 m
Radar Cross Section
5.666 m², Large (>1 m²)

Expand to show TLE details & history
Last TLE update: 7 hours ago

TLE from 7 hours ago
0 IRIDIUM 33
1 24946U 97051C   26266.53121972  .00000174  00000-0  53984-4 0  9994
2 24946  86.3860 308.6919 0008317  20.4412 339.7116 14.35179608519195
Epoch: 2026-09-23T12:44Z
TLE epoch observation values (Epoch: 2026-09-23T12:44:57.383Z)
Latitude
Longitude
115.0718°
Altitude
771.941 km
Speed
7.471 km/s
True Right ascension
20h 34m 46s
True Declination
0° 00' 00"
Sunlit
Object was in full shadow at epoch
Visualization orbit readout
Latitude
Unknown
Longitude
Unknown
Altitude
Unknown
Speed
Unknown
Apparent Right ascension
Unknown
Apparent Declination
Unknown
Sunlit
N/A
Visualization observer readout
Local Sidereal Time
12:41:53
Azimuth
Unknown
Elevation
Unknown
Doppler factor
Unknown
Orbital elements
Apogee altitude
777.379 km
Perigee altitude
765.487 km
Semi-major axis
7,149.57 km
Eccentricity
0.00083
Inclination
86.386°
RAAN
308.6919°
Arg. of periapsis
20.4412°
True anomaly
339.67852°
Mean anomaly
339.7116°
Eccentric anomaly
339.69506°
Mean motion
3.59024 °/min
Orbital period
100.27 mins
BSTAR
0.000053984
Loading maneuver chart data...
Computing Atmospheric mass density...

Documentation

Showing up to 5 results
|